Temperature
13 13 13 13 13 13 13 13 13 13 13 13 13 13 13 13 13 13 13 13 13 13 13 13 13 13 13 13 13 13 13 13 13 13 12 12 12 12 12 12 12 12 12
13 13 13 13 13 13 13 13 13 13 13 12 12 12 12 12 12 12 12 13 13 13 13 13 13 13 13 13 13 13 13 13 12 12 12 12 12 12 12 12 12 12 12
13 13 13 13 13 13 13 12 12 12 12 12 12 12 12 12 12 12 12 12 12 12 12 12 12 12 12 12 12 12 12 12 12 12 12 12 12 12 12 12 11 11 11
13 12 12 12 12 12 12 12 12 12 12 12 12 12 12 12 12 12 12 12 12 12 12 12 12 12 12 12 12 12 12 12 12 12 12 12 12 11 11 11 11 11 11
12 12 12 12 12 12 12 12 12 12 12 12 11 12 12 12 12 12 12 12 12 12 12 12 12 12 12 12 12 12 12 12 12 12 12 11 11 11 11 11 11 11 10
12 12 12 12 12 12 12 12 12 11 11 11 11 11 11 11 11 11 11 11 12 12 12 12 12 12 12 12 12 12 12 12 12 11 11 11 11 11 11 11 10 10 10
11 11 11 11 11 11 11 11 11 11 11 11 11 11 11 11 11 11 11 11 11 11 11 11 11 12 11 11 11 11 11 11 11 11 11 11 11 11 11 10 10 10 10
11 11 11 11 11 11 11 11 11 11 11 11 11 10 10 10 10 11 11 11 11 11 11 11 11 11 11 11 11 11 11 11 11 11 11 11 11 10 10 10 10 10 10
11 11 11 11 11 11 11 11 11 11 11 10 10 11 10 10 10 10 10 10 11 11 11 11 11 11 11 11 11 11 11 11 10 10 10 10 10 10 10 10 10 10 10
10 10 10 10 10 10 10 10 10 10 10 10 10 10 11 10 10 9 10 10 10 10 10 10 10 10 10 10 10 10 10 10 10 10 10 10 10 10 10 9 9 9 9
10 10 10 10 10 10 10 10 10 10 10 10 10 10 10 10 10 10 9 9 10 10 10 10 10 10 10 10 10 10 10 10 10 10 10 10 10 10 9 9 9 9 9
10 10 10 10 10 10 10 10 10 10 9 9 9 9 10 10 10 10 10 9 9 9 9 9 9 9 9 9 10 10 10 10 9 9 9 9 9 9 9 9 9 8 8
9 9 9 9 9 9 9 9 9 9 9 9 9 9 9 9 9 10 10 9 9 9 9 9 9 9 9 9 9 9 9 9 9 9 9 9 9 9 9 8 8 8 8
9 9 9 9 9 8 8 8 8 8 8 8 8 8 8 9 9 9 9 9 8 8 8 8 8 8 8 8 8 8 8 8 8 8 8 8 8 8 8 8 8 8 7
8 8 8 8 8 8 8 8 8 8 8 8 8 8 8 8 8 8 8 8 8 8 7 7 8 8 8 8 8 8 8 8 8 8 8 8 8 8 8 7 7 7 7
8 8 8 8 8 8 8 7 8 7 7 7 7 7 7 8 8 8 8 8 8 8 7 7 7 7 7 7 7 7 7 7 7 7 7 7 7 7 7 7 7 7 6
7 7 7 7 7 7 7 7 7 7 7 7 7 7 7 7 7 7 7 7 7 7 7 7 7 7 7 7 7 7 7 7 7 7 7 7 7 6 6 6 6 6 6
7 7 7 7 7 7 7 7 7 6 7 7 7 6 6 6 6 6 6 6 6 6 6 6 6 6 6 6 6 6 6 6 6 6 6 6 6 6 6 6 5 5 5
6 6 6 6 6 6 6 6 6 6 6 6 6 6 6 6 6 6 6 6 6 6 6 6 5 5 5 5 5 5 5 5 5 5 6 6 5 5 5 5 5 5 5
6 6 6 6 6 6 6 6 6 6 6 6 6 6 5 5 5 5 5 5 5 5 5 5 5 5 4 4 4 5 5 5 5 5 5 5 5 5 5 4 4 4 4
5 5 5 5 5 5 5 5 5 5 5 5 5 5 5 5 5 5 5 5 5 4 4 4 4 4 4 4 4 4 4 4 4 4 4 4 4 4 4 4 4 4 3
4 5 5 5 5 5 5 5 5 5 5 5 5 5 4 4 4 4 4 4 4 4 4 4 3 3 3 3 3 3 3 3 3 3 3 4 3 3 3 3 3 3 3
4 4 4 4 4 4 4 4 4 4 4 4 4 4 4 4 4 4 3 3 3 3 3 3 3 3 3 3 3 3 3 2 2 2 2 3 3 3 3 3 2 2 2
3 3 3 3 3 3 3 3 3 4 4 3 4 3 3 3 3 3 3 3 3 3 2 2 2 2 2 2 2 2 2 2 2 2 2 2 2 2 2 2 2 2 1
2 2 2 3 3 3 3 3 3 3 3 3 3 3 3 2 2 2 2 2 2 2 2 2 1 1 1 1 1 1 1 1 1 1 1 1 1 1 1 2 1 1 1
2 2 2 2 2 2 2 2 2 2 2 2 2 2 2 2 2 2 2 2 2 1 1 1 1 1 1 1 1 1 0 0 0 0 0 -0 0 -0 -0 1 1 1 0
Wind_Speed
3 4 5 6 7 7 7 6 5 5 4 4 4 4 4 5 7 8 9 10 9 8 7 6 6 6 5 5 6 5 6 6 6 6 7 7 7 7 7 6 6 7 6
5 4 4 4 5 6 6 6 5 5 4 3 3 3 4 5 6 8 9 9 8 7 6 5 5 5 5 5 4 4 5 5 5 5 6 6 7 6 7 6 6 6 6
5 4 3 3 4 6 6 5 5 4 4 3 2 3 4 4 5 7 9 9 8 7 6 6 5 5 5 4 4 4 4 5 5 5 6 6 6 6 6 6 5 5 5
5 4 3 3 4 5 4 3 3 3 3 3 3 2 3 4 4 5 7 8 8 7 6 6 5 5 4 3 3 4 4 5 5 6 6 5 5 5 5 5 4 4 4
6 5 3 4 5 4 3 3 3 3 3 3 3 3 2 2 2 4 5 6 7 7 7 6 5 5 3 3 3 3 4 4 4 5 4 4 4 4 4 4 4 4 4
5 5 4 4 5 3 3 3 3 3 3 4 4 3 2 2 2 3 3 4 5 6 6 6 6 4 4 3 3 3 3 3 3 4 3 3 3 2 3 3 3 3 3
5 5 3 3 4 3 4 4 4 4 3 3 3 2 1 1 1 1 2 3 4 5 6 6 6 5 5 4 3 3 3 2 2 3 3 3 2 2 2 3 3 3 3
5 4 4 3 3 3 4 4 4 3 2 3 3 3 2 0 0 1 1 2 2 3 4 5 5 6 6 5 3 2 2 2 2 2 2 2 2 2 2 2 2 2 3
5 4 4 4 3 4 4 4 4 4 4 2 2 2 3 3 2 0 1 1 2 2 2 3 4 5 5 5 4 3 3 2 2 1 2 2 2 1 1 1 1 1 1
5 5 4 4 3 3 4 4 3 3 4 4 2 1 1 2 3 2 0 1 1 2 2 2 3 3 4 4 4 3 3 2 2 1 2 3 3 2 1 1 1 1 1
4 5 5 4 4 3 3 3 3 3 3 3 2 1 1 0 1 2 2 2 1 1 1 2 3 4 3 3 4 3 3 2 2 2 2 3 3 3 2 1 1 1 2
3 4 4 4 4 3 4 3 3 4 3 3 2 2 2 2 2 2 2 2 2 1 1 1 2 3 4 3 3 3 3 2 2 2 2 3 2 2 2 2 2 2 2
3 4 4 4 3 4 4 4 3 3 3 3 3 2 1 1 1 1 2 2 1 1 1 0 1 3 4 4 3 3 2 1 1 1 1 3 2 2 2 2 2 2 2
4 5 4 4 4 5 4 4 3 3 3 3 2 2 1 1 1 1 2 2 1 1 1 1 0 2 4 4 4 3 2 0 1 1 2 3 2 2 1 2 2 2 2
4 5 5 5 4 4 4 4 3 3 3 3 2 2 1 1 1 1 2 2 3 2 2 1 0 0 2 3 3 3 1 0 1 2 2 2 2 2 2 2 2 2 2
4 6 6 6 5 4 4 4 3 3 3 3 3 3 2 1 1 1 1 1 1 2 2 1 0 0 2 2 2 2 1 1 2 3 3 3 2 3 3 2 2 2 2
5 6 6 6 6 5 5 4 4 4 4 3 3 3 2 2 2 1 1 1 1 1 1 0 1 1 1 1 1 1 0 1 2 3 3 3 3 3 3 2 2 3 3
5 5 6 5 5 5 5 6 5 5 5 4 4 3 3 2 2 1 1 1 1 1 2 2 0 0 0 1 1 0 1 1 2 2 2 2 3 3 3 3 3 3 4
5 5 5 6 5 5 5 5 5 5 4 4 4 4 3 3 2 2 2 2 1 1 1 2 1 0 0 0 1 1 1 1 2 2 2 2 3 4 4 4 4 4 4
5 5 5 5 5 5 5 5 5 5 4 3 3 3 3 4 4 3 3 2 2 1 1 1 1 0 0 0 1 1 1 1 1 2 1 3 4 5 5 6 6 6 6
5 5 5 5 4 5 5 5 5 5 5 4 3 3 3 3 4 3 3 3 3 2 2 1 1 1 1 1 1 1 2 1 2 1 0 2 4 4 5 6 6 7 7
5 5 5 6 4 4 6 7 6 5 5 5 4 3 3 3 3 4 4 3 4 4 4 3 2 2 2 2 1 1 1 1 2 1 1 3 3 3 5 6 7 9 9
5 5 5 5 5 5 7 7 7 5 5 5 4 4 3 3 3 3 3 3 2 2 4 4 3 3 3 2 2 2 2 2 3 2 1 3 2 3 6 8 9 9 9
4 5 5 5 5 5 8 8 7 5 4 4 4 4 4 3 3 4 3 3 2 1 1 2 2 2 2 2 2 2 3 1 1 1 1 2 2 3 5 7 9 9 9
4 4 4 5 5 5 7 8 7 5 4 4 3 4 4 4 5 5 4 3 2 1 2 2 1 0 1 2 2 0 0 0 2 2 1 1 2 3 3 4 7 8 9
4 4 4 4 5 5 7 8 7 5 5 4 3 3 4 4 5 5 4 4 2 1 1 1 1 2 2 2 2 1 2 2 2 2 2 1 1 2 3 3 4 6 8
Wind_Direction
142 146 150 158 161 158 158 163 164 159 158 157 147 146 138 127 115 110 122 127 124 123 122 116 116 116 113 105 103 100 107 102 94 87 83 77 72 65 65 67 64 58 56
142 147 146 149 151 159 163 163 161 152 146 136 133 128 124 120 121 118 124 129 129 130 131 129 124 119 116 111 109 107 114 114 102 92 84 81 76 71 66 59 63 60 53
138 143 143 144 150 159 155 149 142 136 134 136 135 115 108 110 118 122 128 131 130 129 132 132 126 121 119 113 103 105 102 112 106 97 88 83 76 73 66 56 60 65 59
148 139 134 143 141 143 138 138 143 135 140 138 131 115 94 95 98 112 121 126 132 134 134 135 135 129 127 126 121 118 111 109 111 105 98 90 79 73 65 58 57 71 68
152 145 140 140 140 134 138 150 143 144 141 136 127 114 105 100 104 104 108 118 125 129 131 135 139 140 129 133 136 127 128 115 116 118 109 97 85 74 65 59 56 69 65
153 145 143 148 145 137 137 141 145 136 139 138 122 108 111 111 98 109 120 121 130 134 131 134 135 135 137 132 134 133 129 127 114 125 117 107 98 86 67 60 55 68 56
154 144 139 146 146 148 151 146 141 142 143 127 112 103 64 83 101 117 124 123 129 143 143 140 139 139 141 148 152 149 134 137 126 132 128 115 97 93 78 63 57 62 42
152 151 144 149 147 148 150 153 143 146 160 151 141 139 149 8 333 171 129 140 131 124 125 138 142 140 140 139 150 166 167 166 160 157 152 135 117 99 79 59 54 59 36
149 148 150 146 148 150 159 167 164 161 172 191 173 155 158 188 177 167 170 153 139 113 115 128 134 141 141 142 142 153 162 180 195 208 202 179 166 163 140 36 16 20 2
154 154 155 150 148 150 156 172 168 167 169 184 210 248 187 144 151 159 226 190 166 154 150 136 136 134 137 140 147 152 163 170 196 240 242 219 207 206 208 253 305 317 351
151 157 162 154 154 154 159 166 164 160 169 175 181 192 196 44 115 156 180 192 185 194 165 155 137 132 141 144 145 145 162 179 212 250 260 238 228 237 239 252 287 306 324
159 158 164 157 158 159 162 163 167 166 174 173 171 172 163 166 183 161 176 178 185 213 172 117 121 129 138 142 139 128 152 190 231 260 273 262 246 251 262 273 299 311 307
169 181 171 164 159 159 157 155 165 172 176 173 176 185 179 186 156 143 144 164 168 178 123 121 133 138 140 139 127 111 121 166 217 260 304 282 268 257 269 289 305 323 331
176 176 170 165 159 156 156 154 165 171 164 167 173 175 163 151 122 142 150 156 158 193 158 213 153 135 130 129 125 114 100 106 250 277 311 296 287 273 271 302 309 310 312
169 167 162 164 158 157 162 162 166 169 162 163 164 159 160 131 116 126 137 156 162 188 223 216 84 100 131 132 141 133 127 281 283 300 303 286 266 243 250 286 298 300 301
163 162 166 163 162 163 163 161 157 160 153 154 155 148 157 132 120 117 139 151 148 174 200 201 184 162 111 126 128 129 177 261 286 282 291 289 261 249 245 256 282 295 286
163 166 165 163 166 170 166 161 160 160 157 156 153 151 158 146 135 136 130 122 110 123 185 261 22 105 95 97 80 98 337 319 293 273 278 282 275 266 260 261 269 279 275
162 163 159 157 161 165 164 165 165 165 162 164 163 151 155 144 137 143 128 126 139 149 163 182 253 20 12 161 127 92 315 304 303 288 270 267 266 278 280 276 271 271 270
157 156 157 158 160 158 156 161 159 156 154 159 162 162 165 152 155 156 134 141 158 128 139 164 194 315 318 161 139 254 269 296 295 285 286 285 287 295 291 286 278 273 276
155 153 153 154 154 152 153 155 154 150 146 147 150 158 166 164 166 163 156 150 136 125 121 126 143 284 319 235 181 224 271 258 277 295 304 307 302 296 288 284 278 274 276
150 147 145 144 145 151 156 152 149 149 149 146 140 139 144 153 161 164 161 158 155 164 154 153 176 231 239 223 232 239 241 261 289 265 297 299 294 289 286 281 277 273 275
145 144 147 146 147 159 150 152 153 149 150 150 149 144 141 142 145 144 145 158 175 182 180 183 202 221 246 243 241 232 206 259 283 293 282 288 277 268 280 280 281 283 281
144 144 144 142 147 151 150 149 147 145 145 148 154 153 149 143 141 132 128 132 141 190 200 193 194 221 242 252 227 210 211 236 260 269 281 280 277 273 281 280 284 286 289
138 141 142 143 144 152 152 149 147 138 134 142 147 148 146 143 149 142 135 121 107 66 170 175 190 219 238 245 229 223 213 231 276 286 266 262 273 273 290 282 278 282 291
127 127 134 144 148 150 154 155 152 141 136 133 135 140 146 146 154 148 135 130 123 98 75 106 125 31 299 291 284 248 196 257 285 282 261 230 276 300 291 276 274 281 291
126 127 125 136 145 148 158 163 165 155 145 142 134 139 155 161 162 157 146 147 158 186 119 53 13 338 338 317 286 239 219 228 267 269 251 226 280 331 304 281 283 293 295
Height
1534 1537 1539 1541 1543 1546 1548 1550 1552 1554 1555 1557 1559 1561 1563 1564 1565 1566 1567 1568 1568 1569 1570 1571 1571 1571 1572 1572 1572 1572 1572 1572 1572 1571 1571 1571 1571 1571 1571 1570 1570 1570 1569
1533 1535 1537 1540 1542 1544 1546 1548 1550 1552 1554 1556 1558 1560 1562 1563 1565 1566 1566 1567 1568 1569 1569 1570 1571 1571 1571 1572 1572 1572 1572 1572 1571 1571 1571 1571 1571 1571 1570 1570 1570 1569 1569
1531 1533 1536 1538 1540 1543 1545 1547 1549 1551 1553 1555 1557 1559 1561 1562 1564 1565 1566 1566 1567 1568 1569 1569 1570 1570 1571 1571 1571 1571 1571 1571 1571 1571 1571 1571 1570 1570 1570 1569 1569 1569 1568
1529 1531 1534 1536 1538 1541 1543 1545 1547 1549 1551 1554 1556 1558 1559 1561 1562 1564 1564 1565 1566 1567 1567 1568 1569 1569 1570 1570 1570 1571 1571 1571 1571 1570 1570 1570 1570 1570 1569 1569 1568 1568 1568
1527 1529 1532 1534 1536 1539 1541 1543 1546 1548 1550 1552 1554 1556 1558 1559 1561 1562 1563 1564 1565 1565 1566 1567 1568 1568 1569 1569 1569 1570 1570 1570 1570 1570 1570 1569 1569 1569 1568 1568 1568 1567 1567
1524 1527 1529 1532 1534 1536 1539 1541 1543 1546 1548 1550 1552 1554 1555 1557 1559 1560 1561 1562 1563 1564 1564 1565 1566 1567 1567 1567 1568 1568 1569 1569 1569 1569 1568 1568 1568 1567 1567 1567 1567 1566 1566
1522 1524 1527 1529 1531 1534 1536 1539 1541 1543 1546 1548 1550 1552 1553 1555 1556 1558 1559 1560 1561 1562 1563 1563 1564 1565 1565 1566 1566 1567 1567 1567 1567 1567 1567 1567 1566 1566 1566 1566 1565 1565 1565
1519 1521 1524 1526 1529 1531 1533 1536 1538 1541 1543 1545 1547 1549 1551 1554 1554 1555 1556 1557 1558 1559 1560 1561 1562 1562 1563 1564 1564 1565 1565 1565 1566 1565 1565 1565 1565 1564 1564 1564 1564 1563 1563
1516 1519 1521 1524 1526 1528 1530 1533 1535 1538 1540 1543 1545 1547 1548 1549 1551 1553 1553 1555 1556 1556 1557 1559 1559 1560 1561 1562 1562 1563 1563 1563 1563 1563 1563 1563 1563 1562 1562 1562 1562 1561 1561
1513 1516 1518 1520 1523 1525 1527 1530 1532 1535 1537 1539 1542 1544 1546 1546 1548 1549 1551 1552 1553 1554 1555 1556 1557 1558 1558 1559 1560 1560 1560 1560 1561 1561 1561 1561 1560 1560 1560 1559 1559 1559 1559
1510 1512 1515 1517 1519 1522 1524 1527 1529 1531 1534 1536 1538 1540 1542 1544 1545 1546 1547 1549 1550 1551 1552 1553 1554 1555 1556 1556 1557 1557 1558 1558 1558 1558 1558 1558 1558 1558 1557 1557 1557 1556 1556
1507 1509 1511 1513 1516 1518 1521 1523 1526 1528 1530 1532 1534 1536 1538 1540 1541 1542 1543 1545 1546 1548 1549 1550 1551 1552 1552 1553 1554 1554 1554 1555 1555 1555 1555 1555 1555 1555 1554 1554 1554 1553 1553
1503 1505 1508 1510 1512 1515 1517 1520 1522 1524 1526 1529 1531 1533 1535 1536 1538 1540 1541 1541 1543 1544 1546 1547 1548 1549 1549 1550 1550 1551 1551 1551 1551 1551 1552 1552 1552 1551 1551 1551 1551 1550 1550
1500 1503 1505 1507 1509 1512 1514 1516 1519 1521 1523 1525 1527 1529 1531 1533 1535 1536 1537 1539 1539 1541 1542 1543 1545 1545 1546 1546 1547 1547 1548 1548 1548 1548 1548 1548 1548 1548 1548 1547 1547 1547 1546
1497 1499 1502 1504 1506 1508 1511 1513 1515 1517 1519 1522 1524 1526 1528 1529 1531 1533 1534 1536 1537 1537 1538 1540 1541 1542 1543 1543 1544 1544 1544 1545 1545 1545 1544 1545 1545 1544 1544 1544 1543 1543 1542
1494 1496 1498 1501 1503 1505 1508 1510 1512 1514 1516 1518 1520 1522 1524 1526 1527 1529 1531 1532 1534 1535 1535 1536 1537 1539 1539 1540 1540 1541 1541 1541 1541 1541 1541 1541 1541 1540 1540 1540 1539 1539 1538
1490 1493 1495 1497 1500 1502 1504 1507 1509 1511 1513 1515 1517 1518 1520 1522 1524 1525 1527 1528 1529 1531 1532 1532 1534 1535 1536 1536 1537 1537 1537 1537 1537 1537 1537 1537 1537 1536 1536 1536 1535 1535 1534
1487 1489 1492 1494 1496 1499 1501 1503 1505 1507 1509 1511 1513 1515 1517 1519 1520 1522 1523 1524 1526 1527 1528 1529 1530 1531 1532 1533 1534 1534 1534 1534 1534 1534 1533 1533 1533 1532 1532 1532 1531 1531 1530
1483 1486 1488 1491 1493 1495 1498 1500 1502 1504 1506 1508 1510 1512 1513 1515 1517 1518 1519 1521 1522 1523 1525 1525 1526 1527 1528 1529 1529 1530 1530 1530 1530 1530 1529 1529 1529 1529 1528 1528 1527 1527 1526
1480 1482 1485 1487 1490 1492 1495 1497 1499 1501 1503 1505 1507 1509 1510 1512 1513 1514 1516 1517 1518 1520 1521 1521 1522 1523 1524 1525 1525 1525 1525 1526 1526 1526 1525 1525 1525 1525 1524 1524 1523 1522 1521
1477 1479 1481 1484 1486 1489 1491 1493 1496 1498 1500 1501 1503 1505 1507 1509 1510 1511 1512 1513 1515 1516 1517 1517 1518 1519 1520 1521 1521 1521 1521 1521 1521 1521 1521 1521 1521 1520 1520 1519 1518 1518 1517
1473 1476 1478 1481 1483 1485 1488 1490 1492 1495 1496 1498 1500 1502 1503 1504 1506 1507 1509 1510 1512 1513 1513 1514 1515 1516 1516 1517 1517 1517 1517 1517 1516 1517 1516 1516 1517 1516 1515 1515 1514 1513 1512
1470 1472 1475 1477 1480 1482 1484 1487 1489 1491 1493 1495 1497 1498 1500 1501 1503 1504 1506 1507 1508 1510 1511 1512 1512 1512 1513 1514 1514 1513 1513 1513 1512 1513 1512 1511 1512 1511 1511 1510 1509 1509 1507
1467 1469 1471 1474 1476 1479 1481 1483 1486 1488 1490 1492 1494 1495 1497 1499 1500 1501 1503 1504 1505 1506 1507 1508 1509 1509 1510 1510 1510 1510 1510 1509 1509 1509 1509 1507 1506 1506 1506 1506 1505 1504 1503
1464 1466 1469 1471 1473 1476 1478 1481 1483 1485 1487 1489 1491 1492 1494 1496 1498 1499 1500 1500 1501 1502 1504 1504 1505 1506 1506 1506 1506 1506 1506 1505 1504 1504 1505 1504 1502 1501 1501 1500 1500 1499 1498
1461 1464 1466 1469 1471 1473 1476 1478 1481 1482 1484 1486 1488 1490 1492 1493 1495 1496 1498 1498 1498 1499 1500 1501 1502 1502 1502 1502 1503 1502 1502 1502 1501 1500 1500 1500 1499 1498 1495 1494 1495 1494 1492